Regional Weather Roundup
Issued by NWS

Home | Current Version | Previous Version | Graphics & Text | Print | Product List | Glossary On
Versions: 1 2 3 4 5 6 7 8 9 10 11 12 13 14 15 16 17 18 19 20 21 22 23 24 25 26 27 28 29 30 31 32 33 34 35 36 37 38 39 40 41 42 43 44 45 46 47 48 49 50
000
ASUS43 KDTX 241910
RWRMI
MICHIGAN HOURLY REGIONAL WEATHER ROUNDUP
NATIONAL WEATHER SERVICE DETROIT/PONTIAC MI
300 PM EDT TUE MAY 24 2016

NOTE: "FAIR" INDICATES FEW OR NO CLOUDS BELOW 12,000 FEET WITH NO
SIGNIFICANT WEATHER AND/OR OBSTRUCTION TO VISIBILITY.

MIZ047>049-052>055-059>063-066>070-074>076-081>083-242000-
SOUTHEAST LOWER MICHIGAN

CITY           SKY/WX    TMP DP  RH WIND       PRES   REMARKS
ADRIAN         MOSUNNY   83  49  30 VRB3      30.03F
ALMA           SUNNY     82  49  30 SW16      29.98S
ANN ARBOR      SUNNY     83  48  29 W9        30.01F
BAD AXE        SUNNY     83  47  28 W9        29.97F
CARO           SUNNY     84  48  28 SW10      29.96F
DETROIT CITY   SUNNY     82  47  29 SW9       30.00F
DETROIT        MOSUNNY   83  48  29 SW9       30.01F
FLINT          SUNNY     87  46  24 W7        29.99F
GROSSE ILE     SUNNY     77  48  36 S12       30.01F
HILLSDALE      MOSUNNY   82  37  19 SW8       30.04S
HOWELL         SUNNY     83  44  25 W12       30.00F

CITY           SKY/WX    TMP DP  RH WIND       PRES   REMARKS
JACKSON        SUNNY     83  48  29 SW15G22   30.01F
LAMBERTVILLE   SUNNY     84  45  25 SW3       30.03F
LANSING        SUNNY     83  50  31 VRB6      30.00F
LAPEER         FAIR      84  40  20 SW8       29.99F
MASON          SUNNY     83  50  32 W8        30.00F
MONROE         SUNNY     83  47  28 SW7       30.01F
PONTIAC        MOSUNNY   82  46  28 VRB5      29.99F
PORT HOPE        N/A     63  56  78 SE9       29.95F
PORT HURON     SUNNY     82  48  30 SW9       30.00F
TRI CITIES     SUNNY     86  47  25 SW7       29.96F
MIDLAND        FAIR      85  48  27 SW10G16   29.95S
TROY           SUNNY     84  42  22 SW5G16    30.02F
SAGINAW HB     SUNNY     84  41  21 SW9       29.96F
$$
MIZ043>046-050>051-056>058-064>065-071>073-077>080-242000-
SOUTHWEST LOWER MICHIGAN

CITY           SKY/WX    TMP DP  RH WIND       PRES   REMARKS
BATTLE CREEK   SUNNY     81  51  35 W13       30.02F
BENTON HARBOR  SUNNY     81  52  36 W12       30.00S
BIG RAPIDS     SUNNY     81  47  29 SW17G23   29.97F
COLDWATER      MOSUNNY   82  49  31 CALM      30.02F
FREMONT        FAIR      82  44  26 SW17G26   29.98F
HOLLAND        SUNNY     81  50  33 SW18      30.01S
GRAND RAPIDS   PTSUNNY   86  49  27 SW13      30.00F
IONIA          FAIR      83  48  29 SW12G21   29.99S
KALAMAZOO      SUNNY     84  50  30 S9G20     30.00F
LUDINGTON      SUNNY     77  51  40 S18G28    29.95F
MARSHALL       PTSUNNY   83  53  35 SW10      30.01F
MOUNT PLEASANT SUNNY     83  47  27 S9        29.96F
MUSKEGON       PTSUNNY   77  51  40 SW15      30.00S
SOUTH HAVEN    SUNNY     80  49  32 W10       30.00S
$$
MIZ016>042-242000-
NORTHERN LOWER MICHIGAN

CITY           SKY/WX    TMP DP  RH WIND       PRES   REMARKS
ALPENA         PTSUNNY   84  47  27 SE15      29.91S
BEAVER ISLAND  PTSUNNY   68  47  46 W9        29.93S
BELLAIRE       MOSUNNY   85  45  24 SW9G17    29.91F
CADILLAC       SUNNY     83  47  28 SW13G22   29.96F
CHARLEVOIX     MOSUNNY   79  49  35 SW9       29.95S
FRANKFORT      MOSUNNY   80  51  36 SW15G24   29.93F
GAYLORD        MOSUNNY   84  43  23 SW13G20   29.93F
GRAYLING       PTSUNNY   86  46  25 SW12G17   29.94F
HARBOR SPRINGS SUNNY     69  49  49 SW3       29.92F
HOUGHTON LAKE  SUNNY     83  48  29 W9        29.96S
MANISTEE       SUNNY     82  45  26 S18G26    29.94F
OSCODA         SUNNY     86  44  23 S18G29    29.92S
PELLSTON       CLOUDY    83  45  26 W15G28    29.91F
ROGERS CITY    SUNNY     67  49  51 N5        29.93S
TRAVERSE CITY  PTSUNNY   87  44  22 W16G23    29.89F
$$
MIZ007>008-015-242000-
EASTERN UPPER MICHIGAN

CITY           SKY/WX    TMP DP  RH WIND       PRES   REMARKS
KINROSS          N/A     81  54  39 SW7G16    29.90S
MACKINAC ISLAN MOSUNNY   70  47  42 W8        29.91F
NEWBERRY       CLOUDY    71  52  51 S8        29.90F
S. S. MARIE    CLOUDY    81  53  37 VRB3      29.88F
MUNISING         N/A     57  57 100 CALM      29.90F
$$
MIZ004>006-011>014-085-242000-
CENTRAL UPPER MICHIGAN

CITY           SKY/WX    TMP DP  RH WIND       PRES   REMARKS
MANISTIQUE     CLOUDY    56  48  73 CALM      29.92R
ESCANABA       CLOUDY    59  55  88 E3        29.89F
MENOMINEE      CLOUDY    77  55  46 SW13      29.89F
SAWYER-GWINN   RAIN      64  61  88 NW6       29.90F
$$
MIZ001>003-009>011-084-242000-
WESTERN UPPER MICHIGAN

CITY           SKY/WX    TMP DP  RH WIND       PRES   REMARKS
IRON MOUNTAIN  LGT RAIN  67  61  81 SW6       29.90R
HOUGHTON       CLOUDY    59  58  96 CALM      29.91R FOG
COPPER HARBOR    N/A     50  49  96 SE9       29.92F
$$

ABBREVIATIONS USED IN REMARKS
   TC - TEMPERATURE IN CELSIUS
  WCI - WIND CHILL INDEX
   HX - HEAT INDEX
  VSB - VISIBILITY




USA.gov is the U.S. government's official web portal to all federal, state and local government web resources and services.